Regional Weather Roundup
Issued by NWS Sterling, VA

Home | Current Version | Previous Version | Graphics & Text | Print | Product List | Glossary On
Versions: 1 2 3 4 5 6 7 8 9 10 11 12 13 14 15 16 17 18 19 20 21 22 23 24 25 26 27 28 29 30 31 32 33 34 35 36 37 38 39 40 41 42 43 44 45 46 47 48 49 50
000
ASUS41 KLWX 262310
RWRLWX

REGIONAL WEATHER ROUNDUP
NATIONAL WEATHER SERVICE BALTIMORE MD/WASHINGTON DC
600 PM EST WED NOV 26 2014

Note: "FAIR" indicates few or no clouds below 12,000 feet
with no significant weather and/or obstructions to visibility.
 TC=TEMPERATURE CELSIUS

 * =Non NWS site. Station does not report precipitation (e.g. rain,
    snow, etc.), thunder, or fog.

DCZ001-MDZ009-015-VAZ040>042-051-053>054-270000-
WASHINGTON METRO

CITY           SKY/WX    TMP DP  RH WIND       PRES   REMARKS
WASHINGTON NAT LGT RAIN  38  33  82 NW12      29.97S
DULLES         LGT RAIN  34  32  92 NW8       29.96S WCI  27
ANDREWS AFB    LGT RAIN  36  32  87 NW12      29.94S WCI  27
FT BELVOIR     DRIZZLE   36  34  90 NW3       29.97S
QUANTICO       MIX PCPN  36  33  89 N8        29.98S
COLLEGE PARK*  CLOUDY    36  34  93 N3        29.95S
LEESBURG*      CLOUDY    36  36 100 N9        29.97F WCI  29
MANASSAS*      CLOUDY    36  36 100 N5        29.97F
GAITHERSBURG*  CLOUDY    34  30  86 NW3       29.98S

$$

MDZ006>007-011-014-270000-
BALTIMORE METRO

CITY           SKY/WX    TMP DP  RH WIND       PRES   REMARKS
BWI AIRPORT    LGT RAIN  35  33  92 NW7       29.94R
MD SCIENCE CTR   N/A     36  33  89 MISG      29.94R
ANNAPOLIS      LGT RAIN  38  35  89 NW15      29.93R
FORT MEADE*    CLOUDY    34  32  93 NW6       29.97S

$$

MDZ012-015-019>023-270000-
MARYLAND EASTERN SHORE

CITY           SKY/WX    TMP DP  RH WIND       PRES   REMARKS
OCEAN CITY     LGT RAIN  40  38  93 NW14G25   29.81R FOG
SALISBURY      LGT RAIN  40  36  86 NW16G23   29.86R FOG
BAY BRIDGE AP* LGT RAIN  37  36  93 NW18      29.93R WCI  27
CAMBRIDGE*     CLOUDY    37  36  93 NW17G24   29.90R WCI  28
EASTON*        LGT RAIN  39  39 100 N13G18    29.94R

$$

MDZ017>025-270000-
SOUTHERN MARYLAND

CITY           SKY/WX    TMP DP  RH WIND       PRES   REMARKS
PATUXENT RIVER LGT RAIN  39  36  89 NW20      29.92R
ST INIGOES     LGT RAIN  38  34  85 NW10G21   29.91S
LEONARDTOWN*   CLOUDY    36  34  93 NW7       29.94R

$$

MDZ003>005-270000-
NORTH CENTRAL MARYLAND

CITY           SKY/WX    TMP DP  RH WIND       PRES   REMARKS
FREDERICK*     LGT RAIN  36  32  87 CALM      30.00R
HAGERSTOWN APT CLOUDY    34  32  92 N3        29.96S
WESTMINSTER*   LGT SNOW  34  32  93 N7        29.94R

$$

MDZ501>502-270000-
WESTERN MARYLAND

CITY           SKY/WX    TMP DP  RH WIND       PRES   REMARKS
OAKLAND*       FOG       30 N/A N/A CALM      29.91S VSB 1/4
CUMBERLAND*    CLOUDY    34  34 100 CALM      30.03R VSB 3/4

$$

VAZ025>031-270000-
SHENANDOAH VALLEY

CITY           SKY/WX    TMP DP  RH WIND       PRES   REMARKS
WINCHESTER*    CLOUDY    34  32  93 CALM      29.98R
FRONT ROYAL*   NOT AVBL
LURAY*         CLOUDY    34  34 100 CALM      29.97F FOG
NEW MARKET*    CLOUDY    32  32 100 CALM      29.97F VSB 3/4
STAUNTON*        N/A    N/A N/A N/A MISG        N/A
WAYNESBORO*    CLOUDY    32  32 100 CALM      29.97R

$$

WVZ021-048>050-054>055-270000-
EASTERN WEST VIRGINIA PANHANDLE

CITY           SKY/WX    TMP DP  RH WIND       PRES   REMARKS
MARTINSBURG    CLOUDY    35  31  85 CALM      29.98S
PETERSBURG*    CLOUDY    34  33  95 CALM      30.00F FOG

$$

VAZ036>039-050-270000-
CENTRAL FOOTHILLS

CITY           SKY/WX    TMP DP  RH WIND       PRES   REMARKS
CHARLOTTESVILL CLOUDY    37  36  96 CALM      29.96S
CULPEPER*      CLOUDY    36  36 100 NW3       29.97S
ORANGE*        CLOUDY    36  34  93 S3        29.98S
GORDONSVILLE*  CLOUDY    34  33  97 S3        29.97R
WARRENTON*     CLOUDY    35  35 100 CALM      29.96S

$$

VAZ055>057-270000-
NORTH AND CENTRAL PIEDMONT

CITY           SKY/WX    TMP DP  RH WIND       PRES   REMARKS
FREDERICKSBRG* DRIZZLE   37  37 100 NW5       29.96S
STAFFORD*      DRIZZLE   35  35 100 NW3       30.00F

$$

NCZ024-NYZ072-PAZ021-071-VAZ022-071-270000-
OTHER REGIONAL OBSERVATIONS

CITY           SKY/WX    TMP DP  RH WIND       PRES   REMARKS
NEW YORK CITY  LGT RAIN  36  33  89 N8G18     29.82S FOG
PHILADELPHIA   LGTSLEET  36  32  85 NW17      29.87R FOG     WCI  26
PITTSBURGH     LGT SNOW  32  31  96 NW5       30.01R FOG
ROANOKE        CLOUDY    38  35  89 NE5       30.01R
RICHMOND       LGT RAIN  39  35  86 N13       29.95S
RALEIGH        MOCLDY    42  38  85 CALM      30.02R

$$

ANZ530>537-270000-
MARINE OBSERVATIONS

STATION/POSITION TIME  TEMP    WIND        PRES
                       AIR SEA DIR/SP/G
                 (UTC) (F)     (DEG/KT/KT) (MB)
THOMAS PT LIGHT  2300   38 47  340/ 17/ 19 1014.0R
BALT KEY BRIDGE  2300   37     310/ 17/ 19 1013.3F
COVE POINT       2300   39     350/ 24/ 26 1012.5S
LEWISETTA        2300   40 49  340/ 16/ 24 1012.9R
SOLOMONS ISLAND  2300      49                N/A
PINEY POINT      2300          350/ 21/ 22   N/A

$$




USA.gov is the U.S. government's official web portal to all federal, state and local government web resources and services.